• In Russia
  • List of Countries
  • For 7 days
  • Water Temperature
  • Satellite Maps
  • Weather Map
  • Weather Widgets
  • user-avatar
    Login

    Hourly Weather Tashkent

    Today, 17 December, Monday

    Time Temperature Precipitation Wind Pressure Humidity
    00:00 +6°C° 0 mm 1 mps 730 mmHg 56%
    01:00 +6°C° 0 mm 1 mps 730 mmHg 55%
    02:00 +6°C° 0 mm 1 mps 729 mmHg 54%
    03:00 +6°C° 0 mm 1 mps 729 mmHg 54%
    04:00 +6°C° 0 mm 1 mps 729 mmHg 53%
    05:00 +6°C° 0 mm 1 mps 728 mmHg 53%
    06:00 +6°C° 0 mm 1 mps 728 mmHg 52%
    07:00 +6°C° 0 mm 1 mps 728 mmHg 52%
    08:00 +6°C° 0 mm 1 mps 728 mmHg 52%
    09:00 +8°C° 0 mm 1 mps 728 mmHg 49%
    10:00 +9°C° 0 mm 1 mps 728 mmHg 46%
    11:00 +10°C° 0 mm 1 mps 728 mmHg 43%
    12:00 +10°C° 0 mm 2 mps 727 mmHg 41%
    13:00 +12°C° 0 mm 2 mps 727 mmHg 39%
    14:00 +12°C° 0 mm 2 mps 727 mmHg 37%
    15:00 +12°C° 0 mm 2 mps 727 mmHg 38%
    16:00 +10°C° 0 mm 2 mps 727 mmHg 40%
    17:00 +10°C° 0 mm 3 mps 726 mmHg 42%
    18:00 +10°C° 0 mm 3 mps 727 mmHg 41%
    19:00 +8°C° 0 mm 4 mps 727 mmHg 41%
    20:00 +8°C° 0 mm 4 mps 727 mmHg 41%
    21:00 +8°C° 0.3 mm 4 mps 727 mmHg 46%
    22:00 +8°C° 0.3 mm 4 mps 727 mmHg 50%
    23:00 +8°C° 0.3 mm 3 mps 727 mmHg 55%

    Tomorrow, 18 December, Tuesday

    Time Temperature Precipitation Wind Pressure Humidity
    00:00 +8°C° 0.7 mm 3 mps 727 mmHg 59%
    01:00 +8°C° 0.7 mm 3 mps 726 mmHg 63%
    02:00 +7°C° 0.7 mm 2 mps 726 mmHg 67%
    03:00 +7°C° 0.2 mm 3 mps 727 mmHg 69%
    04:00 +5°C° 0.2 mm 3 mps 727 mmHg 72%
    05:00 +5°C° 0.2 mm 3 mps 727 mmHg 74%
    06:00 +4°C° 0.1 mm 3 mps 728 mmHg 74%
    07:00 +4°C° 0.1 mm 3 mps 728 mmHg 73%
    08:00 +3°C° 0.1 mm 3 mps 729 mmHg 73%
    09:00 +4°C° 0 mm 2 mps 729 mmHg 68%
    10:00 +5°C° 0 mm 2 mps 729 mmHg 64%
    11:00 +5°C° 0 mm 2 mps 729 mmHg 59%
    12:00 +6°C° 0 mm 2 mps 729 mmHg 57%
    13:00 +6°C° 0 mm 2 mps 728 mmHg 54%
    14:00 +8°C° 0 mm 1 mps 728 mmHg 52%
    15:00 +7°C° 0 mm 2 mps 727 mmHg 54%
    16:00 +6°C° 0 mm 2 mps 727 mmHg 57%
    17:00 +6°C° 0 mm 2 mps 727 mmHg 59%
    18:00 +5°C° 0 mm 2 mps 727 mmHg 61%
    19:00 +5°C° 0 mm 2 mps 727 mmHg 63%
    20:00 +5°C° 0 mm 2 mps 727 mmHg 64%
    21:00 +5°C° 0.2 mm 2 mps 727 mmHg 66%
    22:00 +5°C° 0.2 mm 2 mps 726 mmHg 68%
    23:00 +5°C° 0.2 mm 2 mps 726 mmHg 69%

    Day after tomorrow, 19 December, Wednesday

    Time Temperature Precipitation Wind Pressure Humidity
    00:00 +5°C° 0.3 mm 2 mps 726 mmHg 71%
    01:00 +5°C° 0.3 mm 2 mps 726 mmHg 72%
    02:00 +5°C° 0.3 mm 2 mps 726 mmHg 73%
    03:00 +5°C° 0.3 mm 2 mps 725 mmHg 75%
    04:00 +5°C° 0.3 mm 2 mps 725 mmHg 76%
    05:00 +5°C° 0.3 mm 2 mps 725 mmHg 78%
    06:00 +6°C° 0.3 mm 1 mps 725 mmHg 79%
    07:00 +5°C° 0.3 mm 1 mps 726 mmHg 80%
    08:00 +5°C° 0.3 mm 1 mps 726 mmHg 81%
    09:00 +6°C° 0.3 mm 1 mps 726 mmHg 80%
    10:00 +6°C° 0.3 mm 1 mps 726 mmHg 79%
    11:00 +6°C° 0.3 mm 1 mps 726 mmHg 78%
    12:00 +5°C° 0.4 mm 2 mps 726 mmHg 79%
    13:00 +5°C° 0.4 mm 2 mps 727 mmHg 80%
    14:00 +5°C° 0.4 mm 2 mps 727 mmHg 81%
    15:00 +4°C° 0.6 mm 2 mps 727 mmHg 82%
    16:00 +4°C° 0.6 mm 2 mps 728 mmHg 84%
    17:00 +4°C° 0.6 mm 2 mps 728 mmHg 86%
    18:00 +3°C° 0.6 mm 2 mps 728 mmHg 86%
    19:00 +3°C° 0.6 mm 2 mps 729 mmHg 86%
    20:00 +3°C° 0.6 mm 2 mps 730 mmHg 86%
    21:00 +3°C° 0.4 mm 2 mps 730 mmHg 87%
    22:00 +4°C° 0.4 mm 1 mps 730 mmHg 87%
    23:00 +3°C° 0.4 mm 1 mps 730 mmHg 87%

    20 December, Thursday

    Time Temperature Precipitation Wind Pressure Humidity
    00:00 +3°C° 0.2 mm 1 mps 731 mmHg 87%
    01:00 +3°C° 0.2 mm 1 mps 731 mmHg 87%
    02:00 +3°C° 0.2 mm 1 mps 731 mmHg 87%
    03:00 +2°C° 0.1 mm 1 mps 731 mmHg 87%
    04:00 +2°C° 0.1 mm 1 mps 732 mmHg 87%
    05:00 +2°C° 0.1 mm 1 mps 732 mmHg 87%
    06:00 0°C° 0 mm 0 mps 732 mmHg 86%
    07:00 0°C° 0 mm 0 mps 732 mmHg 86%
    08:00 0°C° 0 mm 0 mps 732 mmHg 85%
    09:00 +1°C° 0 mm 0 mps 733 mmHg 81%
    10:00 +3°C° 0 mm 1 mps 733 mmHg 77%
    11:00 +4°C° 0 mm 1 mps 733 mmHg 73%
    12:00 +5°C° 0 mm 1 mps 732 mmHg 71%
    13:00 +5°C° 0 mm 1 mps 732 mmHg 69%
    14:00 +6°C° 0 mm 1 mps 732 mmHg 67%
    15:00 +5°C° 0 mm 1 mps 732 mmHg 70%
    16:00 +4°C° 0 mm 1 mps 731 mmHg 73%
    17:00 +4°C° 0 mm 1 mps 731 mmHg 75%
    18:00 +2°C° 0 mm 2 mps 731 mmHg 75%
    19:00 +2°C° 0 mm 2 mps 731 mmHg 74%
    20:00 +2°C° 0 mm 2 mps 731 mmHg 73%
    21:00 +2°C° 0 mm 2 mps 730 mmHg 71%
    22:00 +2°C° 0 mm 2 mps 730 mmHg 70%
    23:00 +2°C° 0 mm 2 mps 730 mmHg 68%

    21 December, Friday

    Time Temperature Precipitation Wind Pressure Humidity
    00:00 +2°C° 0 mm 2 mps 729 mmHg 66%
    01:00 +2°C° 0 mm 2 mps 729 mmHg 65%
    02:00 +2°C° 0 mm 2 mps 728 mmHg 63%
    03:00 +2°C° 0 mm 2 mps 728 mmHg 62%
    04:00 +2°C° 0 mm 2 mps 727 mmHg 62%
    05:00 +2°C° 0 mm 2 mps 726 mmHg 61%
    06:00 +2°C° 0 mm 2 mps 726 mmHg 60%
    07:00 +2°C° 0 mm 2 mps 726 mmHg 60%
    08:00 +2°C° 0 mm 2 mps 725 mmHg 59%
    09:00 +3°C° 0 mm 2 mps 725 mmHg 57%
    10:00 +5°C° 0 mm 2 mps 725 mmHg 55%
    11:00 +6°C° 0 mm 2 mps 725 mmHg 53%
    12:00 +8°C° 0 mm 1 mps 724 mmHg 54%
    13:00 +8°C° 0 mm 1 mps 724 mmHg 55%
    14:00 +9°C° 0 mm 1 mps 723 mmHg 56%
    15:00 +8°C° 0 mm 1 mps 723 mmHg 57%
    16:00 +7°C° 0 mm 1 mps 723 mmHg 59%
    17:00 +7°C° 0 mm 1 mps 723 mmHg 60%
    18:00 +7°C° 0 mm 1 mps 723 mmHg 60%
    19:00 +7°C° 0 mm 1 mps 723 mmHg 59%
    20:00 +7°C° 0 mm 1 mps 723 mmHg 58%
    21:00 +7°C° 0 mm 1 mps 723 mmHg 58%
    22:00 +7°C° 0 mm 1 mps 723 mmHg 58%
    23:00 +7°C° 0 mm 1 mps 723 mmHg 58%

    22 December, Saturday

    Time Temperature Precipitation Wind Pressure Humidity
    00:00 +7°C° 0 mm 1 mps 723 mmHg 59%
    01:00 +7°C° 0 mm 1 mps 723 mmHg 60%
    02:00 +7°C° 0 mm 1 mps 723 mmHg 60%
    03:00 +7°C° 0 mm 1 mps 723 mmHg 61%
    04:00 +6°C° 0 mm 1 mps 723 mmHg 63%
    05:00 +6°C° 0 mm 1 mps 723 mmHg 64%
    06:00 +5°C° 0.1 mm 2 mps 723 mmHg 65%
    07:00 +5°C° 0.1 mm 2 mps 723 mmHg 67%
    08:00 +5°C° 0.1 mm 2 mps 724 mmHg 69%
    09:00 +6°C° 0.2 mm 2 mps 724 mmHg 69%
    10:00 +6°C° 0.2 mm 2 mps 724 mmHg 68%
    11:00 +7°C° 0.2 mm 3 mps 724 mmHg 68%
    12:00 +7°C° 0.3 mm 2 mps 724 mmHg 69%
    13:00 +7°C° 0.3 mm 2 mps 724 mmHg 69%
    14:00 +7°C° 0.3 mm 2 mps 724 mmHg 69%
    15:00 +7°C° 0.2 mm 2 mps 724 mmHg 72%
    16:00 +7°C° 0.2 mm 1 mps 725 mmHg 74%
    17:00 +7°C° 0.2 mm 1 mps 725 mmHg 77%
    18:00 +6°C° 0.1 mm 1 mps 725 mmHg 78%
    19:00 +6°C° 0.1 mm 1 mps 725 mmHg 79%
    20:00 +6°C° 0.1 mm 1 mps 725 mmHg 81%
    21:00 +6°C° 0.1 mm 1 mps 725 mmHg 81%
    22:00 +6°C° 0.1 mm 1 mps 725 mmHg 81%
    23:00 +6°C° 0.1 mm 1 mps 725 mmHg 82%
    Show more